Location: Chateh
(58.6667°N, 118.6000°W)
Time: 08:57:06
(UTC+00:00)

PCSat - Pass Details

Date: 10 December 2023
Orbit: 784 x 791 km, 67.0° (Epoch: 01 March)

Event Time Altitude Azimuth Distance (km) Brightness Sun altitude
Exits shadow 14:58:55 14° 294° (WNW) 2,088 11.1 -10.7°
Maximum altitude 15:03:01 35° 355° (N) 1,274 10.4 -10.2°
Drops below altitude 10° 15:07:58 10° 61° (ENE) 2,365 12.5 -9.6°
Sets 15:10:37 0° 70° (ENE) 3,296 13.4 -9.3°
